Location: Most
(50.5133°N, 13.6207°E)
Time: 20:07:41
(UTC+02:00)

ISS - Pass Details

Date: 23 May 2025
Orbit: 415 x 417 km, 51.6° (Epoch: 16 June)

Event Time Altitude Azimuth Distance (km) Brightness Sun altitude
Rises 22:16:23 0° 285° (WNW) 2,362 1.0 -9.9°
Reaches altitude 10° 22:18:41 10° 273° (W) 1,494 -0.3 -10.1°
Maximum altitude 22:21:33 26° 214° (SW) 849 -2.4 -10.4°
Enters shadow 22:23:36 15° 164° (SSE) 1,219 -2.0 -10.6°
